NOAA NWS Hourly Roundups by Site

Regional Weather Roundup for Bismarck, ND

To Select Another Site Choose from List

Select Site:  

000
ASUS43 KBIS 020510
RWRBIS

NWR BROADCAST TEXT
NATIONAL WEATHER SERVICE BISMARCK ND
1200 AM CDT MON AUG 02 2021

NOTE: "FAIR" INDICATES FEW OR NO CLOUDS BELOW 12,000 FEET WITH NO
SIGNIFICANT WEATHER AND/OR OBSTRUCTIONS TO VISIBILITY.


CITY           SKY/WX    TMP DP  RH WIND       PRES   REMARKS
WILLISTON      PTCLDY    72  47  40 E9        30.18R
MINOT          CLEAR     68  51  54 SE5       30.15S
MINOT AFB      CLEAR     62  41  46 S3        30.14S
BISMARCK       CLEAR     68  52  56 SE3       30.18R
DICKINSON      CLEAR     64  44  48 E7        30.17F
GARRISON         N/A     68  53  58 S5        30.17S
HETTINGER ARPT CLEAR     72  49  44 SE10      30.20R
JAMESTOWN      PTCLDY    60  52  74 SE3       30.18S HAZE
CARRINGTON     FAIR      61  50  67 SE6       30.20S
HAZEN            N/A     68  52  56 S5G12     30.19R
MANDAN         PTCLDY    66  54  63 SE7       30.19S
OAKES          CLOUDY    55  55 100 SE8       30.19F FOG
RUGBY          FAIR      66  52  59 S8        30.15F
STANLEY        FAIR      66  50  55 E3        30.19S
TIOGA            N/A     63  48  59 CALM      30.20R
WATFORD CITY   FAIR      68  50  52 E7        30.17S
$$

CITY           SKY/WX    TMP DP  RH WIND       PRES   REMARKS
GRAND FORKS    CLOUDY    57  49  74 SW8       30.14F
GRAND FORKS AF PTCLDY    58  52  82 SW5       30.15S SMOKE
DEVILS LAKE    CLEAR     63  55  75 CALM      30.17F
FARGO          CLEAR     56  49  77 S3        30.16F
CANDO            N/A     59  59 100 CALM      30.18F
CAVALIER       CLOUDY    63  50  63 SW7       30.13S HAZE
GRAFTON        FAIR      61  52  72 W5          N/A  HAZE
GWINNER        CLOUDY    57  57 100 SW5       30.18F FOG
LANGDON        FAIR      55  55 100 CALM      30.17F
ROLLA          FAIR      57  54  88 SW3       30.18S
WALHALLA       FAIR      59  59 100 CALM      30.13F
$$

CITY           SKY/WX    TMP DP  RH WIND       PRES   REMARKS
ABERDEEN       CLEAR     60  51  72 E3        30.19S
MOBRIDGE       CLEAR     69  53  56 SE12      30.16S
BUFFALO          N/A     71  38  29 E6        30.17S
RAPID CITY     CLEAR     61  45  55 W5        30.21F
GLASGOW        CLEAR     78  40  25 E13       30.11R
SIDNEY         CLEAR     70  44  39 N3        30.15R
WOLF POINT     CLEAR     71  42  35 NE7       30.13R
GLENDIVE       CLEAR     74  41  30 NE7       30.16F
MILES CITY     CLEAR     82  38  20 E9        30.13R
BAKER          PTCLDY    67  39  35 SE7       30.20S
$$

CITY           SKY/WX    TMP DP  RH WIND       PRES   REMARKS
BILLINGS       PTCLDY    80  41  24 N3        30.13S
GREAT FALLS    PTCLDY    81  48  31 W8        30.09R
REGINA         MOCLDY    66  50  55 SE10      30.15F
ESTEVAN        CLEAR     59  50  72 NE6       30.15F
$$



 

View Past Reports for Bismarck, ND.

Products Courtesy of NOAA-NWS
NWS Information Parsing Script by Ken True at Saratoga Weather - Script by SE Lincoln Weather.